Waarnemingen

Advertentie
Mijn weer
Ponferrada, Spanje (8053): temperatuur & dauwpunt: 16.08.2018 01:00:00 - 22.08.2018 01:00:00 (CEST)Ponferrada, Spanje (8053): windsnelheid: 16.08.2018 01:00:00 - 22.08.2018 01:00:00 (CEST)Ponferrada, Spanje (8053): windrichting: 16.08.2018 01:00:00 - 22.08.2018 01:00:00 (CEST)Ponferrada, Spanje (8053): luchtdruk: 16.08.2018 01:00:00 - 22.08.2018 01:00:00 (CEST)Ponferrada, Spanje (8053): zicht: 16.08.2018 01:00:00 - 22.08.2018 01:00:00 (CEST)Ponferrada, Spanje (8053): neerslag: 16.08.2018 01:00:00 - 22.08.2018 01:00:00 (CEST)
Datum & Tijd tt [°C] td [°C] ff [km/u] ff [kn] dd ppp [hPa] vv [km] rr [mm]
22.08.2018 01:00:00 23,1 13,6 2 1 W 1014,9 17 0,0
22.08.2018 00:00:00 23,9 13,1 4 2 ZO 1014,7 17 0,0
21.08.2018 23:00:00 25,3 13,2 4 2 ZZO 1014,0 17 -
21.08.2018 22:00:00 27,0 14,4 2 1 OZO 1012,8 15 0,0
21.08.2018 21:00:00 30,6 13,8 5 3 WZW 1011,6 17 0,0
21.08.2018 20:00:00 33,4 11,3 8 4 W 1010,5 19 -
21.08.2018 19:00:00 34,3 7,4 5 3 ZZW 1010,3 19 0,0
21.08.2018 18:00:00 34,5 6,7 5 3 WNW 1010,7 19 0,0
21.08.2018 17:00:00 34,4 8,2 5 3 W 1011,4 19 -
21.08.2018 16:00:00 33,4 7,4 5 3 WNW 1012,3 17 0,0
21.08.2018 15:00:00 31,6 9,2 5 3 W 1013,3 14 0,0
21.08.2018 14:00:00 29,2 12,6 5 3 WNW 1014,4 14 -
21.08.2018 13:00:00 26,5 12,2 4 2 WNW 1016,0 14 0,0
21.08.2018 12:00:00 23,4 12,1 4 2 W 1017,3 14 0,0
21.08.2018 11:00:00 21,0 11,9 4 2 WNW 1018,3 15 -
21.08.2018 10:00:00 18,9 11,2 4 2 ZO 1018,8 14 0,0
21.08.2018 09:00:00 16,1 10,4 2 1 Z 1019,6 13 0,0
21.08.2018 08:00:00 15,1 10,1 2 1 ZZO 1019,6 13 -
21.08.2018 07:00:00 14,7 9,7 0 0 N 1019,2 14 0,0
21.08.2018 06:00:00 15,4 10,2 0 0 N 1019,0 14 0,0
21.08.2018 05:00:00 16,2 10,5 0 0 N 1018,8 15 -
21.08.2018 04:00:00 16,8 10,2 2 1 OZO 1018,6 15 0,0
21.08.2018 03:00:00 17,8 9,9 2 1 O 1018,5 16 0,0
21.08.2018 02:00:00 19,2 9,9 2 1 O 1018,4 16 -
21.08.2018 01:00:00 21,8 9,7 4 2 ZZO 1017,9 17 0,0
21.08.2018 00:00:00 24,1 8,9 4 2 ZZO 1017,1 17 0,0
20.08.2018 23:00:00 25,3 9,2 4 2 ZZO 1016,7 16 -
20.08.2018 22:00:00 26,8 10,5 4 2 NO 1015,6 15 0,0
20.08.2018 21:00:00 30,4 9,8 5 3 ZZO 1014,3 15 0,0
20.08.2018 20:00:00 32,4 7,3 5 3 OZO 1013,9 16 -
20.08.2018 19:00:00 33,3 5,8 8 4 ZO 1013,7 17 0,0
20.08.2018 18:00:00 33,6 6,0 8 4 ZO 1014,2 17 0,0
20.08.2018 17:00:00 33,5 7,5 9 5 OZO 1014,8 18 -
20.08.2018 16:00:00 33,2 7,2 11 6 ZO 1015,8 19 0,0
20.08.2018 15:00:00 31,8 11,0 5 3 W 1016,5 20 0,0
20.08.2018 14:00:00 29,6 12,9 5 3 W 1017,6 20 -
20.08.2018 13:00:00 26,1 11,8 5 3 W 1019,0 14 0,0
20.08.2018 12:00:00 23,1 10,5 4 2 WNW 1020,4 17 0,0
20.08.2018 11:00:00 20,6 10,4 5 3 WNW 1021,4 17 -
20.08.2018 10:00:00 17,4 10,0 4 2 WZW 1022,3 17 0,0
20.08.2018 09:00:00 15,4 10,0 2 1 W 1022,6 17 0,0
20.08.2018 08:00:00 13,5 9,2 2 1 OZO 1022,6 18 -
20.08.2018 07:00:00 14,2 9,0 2 1 N 1022,2 19 0,0
20.08.2018 06:00:00 14,9 9,3 2 1 O 1021,8 20 0,0
20.08.2018 05:00:00 16,3 9,5 2 1 NNW 1021,5 20 -
20.08.2018 04:00:00 16,4 9,6 2 1 OZO 1021,6 20 0,0
20.08.2018 03:00:00 17,1 9,3 2 1 O 1021,4 20 0,0
20.08.2018 02:00:00 18,3 9,1 4 2 ZO 1021,2 20 -
20.08.2018 01:00:00 19,8 8,8 2 1 ZO 1020,8 20 0,0
20.08.2018 00:00:00 21,7 8,9 2 1 OZO 1020,4 20 0,0
19.08.2018 23:00:00 23,1 8,8 2 1 ZZW 1019,7 20 -
19.08.2018 22:00:00 26,5 8,9 2 1 O 1018,4 20 0,0
19.08.2018 21:00:00 29,8 7,1 8 4 ZO 1016,8 20 0,0
19.08.2018 20:00:00 32,2 7,8 8 4 ZZO 1016,2 20 -
19.08.2018 19:00:00 33,2 7,2 5 3 ZO 1015,9 20 0,0
19.08.2018 18:00:00 33,6 6,8 4 2 OZO 1015,9 20 0,0
19.08.2018 17:00:00 33,2 4,0 9 5 ZZO 1016,2 20 -
19.08.2018 16:00:00 32,6 1,6 11 6 ZO 1016,9 20 0,0
19.08.2018 15:00:00 31,4 2,5 8 4 ZZO 1017,7 20 0,0
19.08.2018 14:00:00 28,3 10,0 5 3 WZW 1018,6 20 -
19.08.2018 13:00:00 24,9 10,7 5 3 NW 1020,1 20 0,0
19.08.2018 12:00:00 22,0 9,5 5 3 WZW 1021,3 20 0,0
19.08.2018 11:00:00 18,8 9,6 4 2 W 1022,0 20 -
19.08.2018 10:00:00 16,1 9,5 2 1 ZZW 1022,9 20 0,0
19.08.2018 09:00:00 14,1 8,5 2 1 NNW 1023,0 20 0,0
19.08.2018 08:00:00 12,2 8,1 2 1 ZZO 1022,9 20 -
19.08.2018 07:00:00 12,9 7,3 2 1 NNW 1022,5 20 0,0
19.08.2018 06:00:00 13,9 7,6 0 0 N 1022,1 20 0,0
19.08.2018 05:00:00 14,4 7,4 2 1 O 1022,0 20 -
19.08.2018 04:00:00 15,2 7,0 2 1 NO 1021,6 20 0,0
19.08.2018 03:00:00 16,2 7,4 2 1 ZO 1021,3 20 0,0
19.08.2018 02:00:00 17,4 7,4 2 1 ZZO 1020,9 20 -
19.08.2018 01:00:00 19,4 7,5 2 1 ZO 1020,2 20 0,0
19.08.2018 00:00:00 20,9 7,1 4 2 ZZO 1019,5 20 0,0
18.08.2018 23:00:00 23,1 6,4 2 1 ZW 1018,8 20 -
18.08.2018 22:00:00 24,5 7,2 5 3 OZO 1017,7 20 0,0
18.08.2018 21:00:00 27,9 6,0 5 3 ZO 1016,3 20 0,0
18.08.2018 20:00:00 29,9 5,2 8 4 ZO 1015,4 20 -
18.08.2018 19:00:00 30,6 4,3 5 3 ZZO 1015,4 20 0,0
18.08.2018 18:00:00 31,5 2,6 4 2 ZO 1015,3 19 0,0
18.08.2018 17:00:00 30,6 1,9 5 3 Z 1016,0 20 -
18.08.2018 16:00:00 29,1 4,5 9 5 WNW 1016,8 20 0,0
18.08.2018 15:00:00 27,8 6,0 5 3 WNW 1017,6 20 0,0
18.08.2018 14:00:00 25,7 9,5 8 4 W 1018,4 20 -
18.08.2018 13:00:00 22,8 9,9 5 3 W 1020,2 20 0,0
18.08.2018 12:00:00 20,4 10,2 5 3 W 1021,1 20 0,0
18.08.2018 11:00:00 17,7 9,6 4 2 WNW 1022,3 20 -
18.08.2018 10:00:00 15,5 9,2 5 3 WZW 1023,0 20 0,0
18.08.2018 09:00:00 13,9 9,3 2 1 ZW 1023,2 20 0,0
18.08.2018 08:00:00 12,3 8,9 2 1 O 1023,5 20 -
18.08.2018 07:00:00 13,4 9,3 4 2 W 1022,6 20 0,0
18.08.2018 06:00:00 14,4 9,6 4 2 ONO 1022,2 20 0,0
18.08.2018 05:00:00 15,4 9,5 4 2 ZO 1022,1 20 -
18.08.2018 04:00:00 16,4 9,3 5 3 ZZO 1021,6 20 0,0
18.08.2018 03:00:00 16,7 11,4 4 2 Z 1021,6 20 0,0
18.08.2018 02:00:00 17,0 11,7 4 2 WNW 1021,7 20 -
18.08.2018 01:00:00 17,9 12,1 2 1 NO 1021,2 20 0,0
18.08.2018 00:00:00 19,2 12,5 2 1 O 1020,6 20 0,0
17.08.2018 23:00:00 20,4 12,6 4 2 WNW 1019,7 20 -
17.08.2018 22:00:00 21,5 12,9 9 5 WZW 1018,5 20 0,0
17.08.2018 21:00:00 23,6 13,5 11 6 WZW 1017,3 20 0,0
17.08.2018 20:00:00 27,0 14,1 11 6 WZW 1015,9 20 -
17.08.2018 19:00:00 28,0 13,9 13 7 W 1015,6 20 0,0
17.08.2018 18:00:00 29,0 13,6 11 6 WNW 1015,3 20 0,0
17.08.2018 17:00:00 29,0 12,0 5 3 W 1015,8 20 -
17.08.2018 16:00:00 28,2 12,5 8 4 WNW 1016,6 20 0,0
17.08.2018 15:00:00 26,8 13,5 4 2 WNW 1017,6 20 0,0
17.08.2018 14:00:00 25,0 13,5 5 3 WNW 1018,7 20 -
17.08.2018 13:00:00 23,0 13,2 5 3 ZW 1019,8 20 0,0
17.08.2018 12:00:00 20,4 13,4 4 2 W 1020,8 20 0,0
17.08.2018 11:00:00 18,7 13,3 4 2 W 1021,0 20 -
17.08.2018 10:00:00 16,9 12,8 4 2 WZW 1021,5 20 0,0
17.08.2018 09:00:00 15,0 12,1 2 1 NW 1021,7 20 0,0
17.08.2018 08:00:00 14,7 11,8 4 2 ZZO 1021,5 20 -
17.08.2018 07:00:00 14,8 12,1 4 2 O 1020,9 20 0,0
17.08.2018 06:00:00 15,2 12,1 4 2 OZO 1020,6 20 0,0
17.08.2018 05:00:00 16,0 12,4 2 1 OZO 1020,3 20 -
17.08.2018 04:00:00 16,6 12,5 2 1 O 1019,9 20 0,0
17.08.2018 03:00:00 17,6 12,9 4 2 WZW 1019,7 20 0,0
17.08.2018 02:00:00 18,4 13,0 5 3 ZW 1019,3 19 -
17.08.2018 01:00:00 18,7 13,3 2 1 WZW 1019,2 20 0,0
17.08.2018 00:00:00 19,0 13,6 4 2 ZZW 1018,4 20 0,0
16.08.2018 23:00:00 20,1 14,0 5 3 WZW 1017,5 20 -
16.08.2018 22:00:00 21,2 14,6 9 5 WZW 1016,4 20 0,0
16.08.2018 21:00:00 23,3 14,8 8 4 W 1015,3 20 0,0
16.08.2018 20:00:00 25,8 15,2 15 8 WNW 1013,7 20 -
16.08.2018 19:00:00 28,3 15,6 18 10 WNW 1012,4 20 0,0
16.08.2018 18:00:00 29,6 14,2 18 10 WNW 1012,2 19 0,0
16.08.2018 17:00:00 30,1 13,8 15 8 WNW 1012,3 20 -
16.08.2018 16:00:00 29,6 14,6 13 7 WNW 1013,1 20 0,0
16.08.2018 15:00:00 28,3 14,5 11 6 W 1013,6 20 0,0
16.08.2018 14:00:00 26,4 15,7 8 4 WZW 1014,3 20 -
16.08.2018 13:00:00 24,1 16,1 11 6 WNW 1015,6 20 0,0
16.08.2018 12:00:00 23,0 16,1 8 4 W 1016,3 20 0,0
16.08.2018 11:00:00 20,6 14,5 8 4 WNW 1016,8 20 -
16.08.2018 10:00:00 19,3 13,9 5 3 W 1016,8 20 0,0
16.08.2018 09:00:00 17,9 13,6 4 2 OZO 1016,9 20 0,0
16.08.2018 08:00:00 16,0 12,7 2 1 N 1017,2 20 -
16.08.2018 07:00:00 16,2 13,1 2 1 ZO 1016,7 20 0,0
16.08.2018 06:00:00 17,1 13,6 2 1 ZO 1016,4 20 0,0
16.08.2018 05:00:00 18,1 14,0 2 1 NW 1016,0 20 -
16.08.2018 04:00:00 18,6 14,1 4 2 O 1016,1 20 0,0
16.08.2018 03:00:00 20,2 14,3 2 1 Z 1015,8 16 0,0
16.08.2018 02:00:00 21,5 14,9 2 1 Z 1015,7 20 -
16.08.2018 01:00:00 22,3 14,9 4 2 ZZO 1015,4 20 0,0

tt = temperatuur
td = dauwpunt
ff = windsnelheid
dd = windrichting
ppp = luchtdruk
vv = zicht
rr = neerslag

Weerstations in de omgeving